| time (UTC) | temp C | wind direction | speed KPH | gust KPH | rain 1hr cm | rain 24hr cm | rain mn cm | humidity % | barometer mb |
| 20260509162123 | 28 | 358 | 3.2 | 3.2 | 0.00 | 0.00 | 0.00 | 66 | 1012.0 |
| 20260509161619 | 27 | 72 | 3.2 | 3.2 | 0.00 | 0.00 | 0.00 | 68 | 1011.9 |
| 20260509161114 | 27 | 319 | 3.2 | 3.2 | 0.00 | 0.00 | 0.00 | 69 | 1011.8 |
| 20260509160611 | 27 | 339 | 3.2 | 3.2 | 0.00 | 0.00 | 0.00 | 69 | 1011.8 |
| 20260509160106 | 27 | 22 | 1.6 | 3.2 | 0.00 | 0.00 | 0.00 | 69 | 1011.6 |
| 20260509155602 | 26 | 25 | 1.6 | 1.6 | 0.00 | 0.00 | 0.00 | 70 | 1011.7 |
| 20260509155058 | 26 | 69 | 1.6 | 3.2 | 0.00 | 0.00 | 0.00 | 69 | 1011.7 |
| 20260509154554 | 26 | 358 | 3.2 | 3.2 | 0.00 | 0.00 | 0.00 | 69 | 1011.8 |
| 20260509154052 | 26 | 13 | 0.0 | 1.6 | 0.00 | 0.00 | 0.00 | 71 | 1011.6 |
| 20260509153549 | 26 | 78 | 0.0 | 0.0 | 0.00 | 0.00 | 0.00 | 72 | 1011.9 |
| 20260509153046 | 26 | 357 | 0.0 | 1.6 | 0.00 | 0.00 | 0.00 | 72 | 1011.6 |
| 20260509152542 | 26 | 343 | 1.6 | 1.6 | 0.00 | 0.00 | 0.00 | 73 | 1011.7 |
| 20260509152040 | 25 | 23 | 1.6 | 3.2 | 0.00 | 0.00 | 0.00 | 74 | 1011.6 |
| 20260509151535 | 25 | 328 | 0.0 | 1.6 | 0.00 | 0.00 | 0.00 | 75 | 1011.7 |
| 20260509151033 | 25 | 317 | 1.6 | 3.2 | 0.00 | 0.00 | 0.00 | 75 | 1011.6 |
| 20260509150531 | 25 | 356 | 1.6 | 3.2 | 0.00 | 0.00 | 0.00 | 75 | 1011.7 |
| 20260509150029 | 25 | 339 | 1.6 | 1.6 | 0.00 | 0.00 | 0.00 | 75 | 1011.9 |
| 20260509145524 | 25 | 344 | 0.0 | 0.0 | 0.00 | 0.00 | 0.00 | 75 | 1011.7 |
| 20260509145019 | 25 | 20 | 0.0 | 1.6 | 0.00 | 0.00 | 0.00 | 76 | 1011.6 |
| 20260509144517 | 25 | 342 | 1.6 | 1.6 | 0.00 | 0.00 | 0.00 | 77 | 1011.7 |
| 20260509144014 | 24 | 344 | 0.0 | 1.6 | 0.00 | 0.00 | 0.00 | 78 | 1011.5 |
| 20260509143511 | 24 | 345 | 0.0 | 1.6 | 0.00 | 0.00 | 0.00 | 79 | 1011.6 |
| 20260509143009 | 23 | 347 | 1.6 | 1.6 | 0.00 | 0.00 | 0.00 | 80 | 1011.8 |
| 20260509142504 | 23 | 345 | 1.6 | 3.2 | 0.00 | 0.00 | 0.00 | 81 | 1011.7 |
| 20260509141959 | 23 | 329 | 0.0 | 0.0 | 0.00 | 0.00 | 0.00 | 83 | 1011.7 |
| 20260509141456 | 23 | 3 | 1.6 | 1.6 | 0.00 | 0.00 | 0.00 | 83 | 1011.8 |
| 20260509140953 | 22 | 303 | 1.6 | 1.6 | 0.00 | 0.00 | 0.00 | 84 | 1011.7 |
| 20260509140449 | 22 | 306 | 0.0 | 0.0 | 0.00 | 0.00 | 0.00 | 85 | 1011.5 |
| 20260509135948 | 22 | 327 | 0.0 | 0.0 | 0.00 | 0.00 | 0.00 | 86 | 1011.9 |
| 20260509135445 | 22 | 335 | 0.0 | 0.0 | 0.00 | 0.00 | 0.00 | 87 | 1011.7 |
| 20260509134942 | 22 | 12 | 0.0 | 0.0 | 0.00 | 0.00 | 0.00 | 87 | 1011.9 |
| 20260509134439 | 22 | 352 | 1.6 | 3.2 | 0.00 | 0.00 | 0.00 | 88 | 1011.9 |
| 20260509133937 | 21 | 17 | 0.0 | 0.0 | 0.00 | 0.00 | 0.00 | 88 | 1011.6 |
| 20260509133433 | 21 | 333 | 0.0 | 0.0 | 0.00 | 0.00 | 0.00 | 89 | 1011.6 |
| 20260509132931 | 21 | 307 | 1.6 | 1.6 | 0.00 | 0.00 | 0.00 | 90 | 1011.5 |
| 20260509132429 | 21 | 355 | 0.0 | 1.6 | 0.00 | 0.00 | 0.00 | 90 | 1011.4 |
| 20260509131926 | 21 | 18 | 1.6 | 1.6 | 0.00 | 0.00 | 0.00 | 91 | 1011.7 |
| 20260509131423 | 21 | 342 | 0.0 | 1.6 | 0.00 | 0.00 | 0.00 | 91 | 1011.8 |
| 20260509130920 | 20 | 259 | 0.0 | 0.0 | 0.00 | 0.00 | 0.00 | 92 | 1011.6 |
| 20260509130415 | 20 | 327 | 0.0 | 1.6 | 0.00 | 0.00 | 0.00 | 92 | 1011.8 |
| 20260509125912 | 20 | 309 | 1.6 | 3.2 | 0.00 | 0.00 | 0.00 | 93 | 1011.8 |
| 20260509125409 | 20 | 290 | 0.0 | 0.0 | 0.00 | 0.00 | 0.00 | 93 | 1011.6 |
| 20260509124905 | 20 | 343 | 0.0 | 0.0 | 0.00 | 0.00 | 0.00 | 93 | 1011.4 |
| 20260509124402 | 20 | 318 | 1.6 | 3.2 | 0.00 | 0.00 | 0.00 | 93 | 1011.7 |
| 20260509123900 | 20 | 330 | 0.0 | 0.0 | 0.00 | 0.00 | 0.00 | 93 | 1011.5 |
| 20260509123357 | 20 | 40 | 1.6 | 1.6 | 0.00 | 0.00 | 0.00 | 94 | 1011.4 |
| 20260509122852 | 20 | 329 | 0.0 | 0.0 | 0.00 | 0.00 | 0.00 | 94 | 1011.6 |
| 20260509122349 | 20 | 333 | 0.0 | 0.0 | 0.00 | 0.00 | 0.00 | 94 | 1011.4 |
| 20260509121846 | 20 | 335 | 0.0 | 0.0 | 0.00 | 0.00 | 0.00 | 94 | 1011.5 |
| 20260509121343 | 20 | 330 | 0.0 | 0.0 | 0.00 | 0.00 | 0.00 | 94 | 1011.4 |
| 20260509120842 | 20 | 299 | 1.6 | 3.2 | 0.00 | 0.00 | 0.00 | 95 | 1011.5 |
| 20260509120339 | 20 | 330 | 0.0 | 0.0 | 0.00 | 0.00 | 0.00 | 95 | 1011.4 |
| 20260509115837 | 20 | 349 | 1.6 | 3.2 | 0.00 | 0.00 | 0.00 | 95 | 1011.1 |
| 20260509115334 | 20 | 343 | 0.0 | 0.0 | 0.00 | 0.00 | 0.00 | 95 | 1011.3 |
| 20260509114832 | 20 | 339 | 0.0 | 0.0 | 0.00 | 0.00 | 0.00 | 95 | 1011.1 |
| 20260509114330 | 20 | 327 | 0.0 | 0.0 | 0.00 | 0.00 | 0.00 | 95 | 1011.3 |
| 20260509113829 | 20 | 339 | 0.0 | 0.0 | 0.00 | 0.00 | 0.00 | 95 | 1011.0 |
| 20260509113326 | 20 | 305 | 0.0 | 0.0 | 0.00 | 0.00 | 0.00 | 95 | 1010.6 |
| 20260509112822 | 20 | 328 | 0.0 | 0.0 | 0.00 | 0.00 | 0.00 | 95 | 1010.3 |
| 20260509112320 | 20 | 344 | 0.0 | 0.0 | 0.00 | 0.00 | 0.00 | 95 | 1010.7 |
| 20260509111817 | 20 | 331 | 0.0 | 0.0 | 0.00 | 0.00 | 0.00 | 95 | 1010.7 |
| 20260509111313 | 20 | 342 | 0.0 | 0.0 | 0.00 | 0.00 | 0.00 | 95 | 1010.7 |
| 20260509110811 | 20 | 337 | 0.0 | 0.0 | 0.00 | 0.00 | 0.00 | 95 | 1010.6 |
| 20260509110307 | 19 | 318 | 0.0 | 0.0 | 0.00 | 0.00 | 0.00 | 95 | 1010.4 |
| 20260509105806 | 19 | 339 | 0.0 | 0.0 | 0.00 | 0.00 | 0.00 | 94 | 1010.0 |
| 20260509105306 | 19 | 332 | 0.0 | 0.0 | 0.00 | 0.00 | 0.00 | 94 | 1009.9 |
| 20260509104759 | 19 | 327 | 0.0 | 0.0 | 0.00 | 0.00 | 0.00 | 94 | 1010.0 |
| 20260509104256 | 19 | 337 | 0.0 | 0.0 | 0.00 | 0.00 | 0.00 | 94 | 1009.7 |
| 20260509103755 | 20 | 338 | 0.0 | 0.0 | 0.00 | 0.00 | 0.00 | 94 | 1009.8 |
| 20260509103251 | 20 | 322 | 0.0 | 0.0 | 0.00 | 0.00 | 0.00 | 94 | 1009.8 |
| 20260509102750 | 20 | 340 | 0.0 | 0.0 | 0.00 | 0.00 | 0.00 | 94 | 1009.7 |
| 20260509102247 | 20 | 339 | 0.0 | 0.0 | 0.00 | 0.00 | 0.00 | 93 | 1009.8 |
| 20260509101743 | 20 | 337 | 0.0 | 0.0 | 0.00 | 0.00 | 0.00 | 93 | 1009.7 |
| 20260509101239 | 20 | 321 | 1.6 | 1.6 | 0.00 | 0.00 | 0.00 | 93 | 1009.9 |
| 20260509100737 | 20 | 340 | 0.0 | 0.0 | 0.00 | 0.00 | 0.00 | 93 | 1009.7 |
| 20260509100234 | 20 | 355 | 0.0 | 0.0 | 0.00 | 0.00 | 0.00 | 93 | 1009.4 |
| 20260509095730 | 20 | 97 | 1.6 | 3.2 | 0.00 | 0.00 | 0.00 | 93 | 1009.2 |
| 20260509095228 | 20 | 270 | 0.0 | 1.6 | 0.00 | 0.00 | 0.00 | 93 | 1009.4 |
| 20260509094725 | 20 | 34 | 0.0 | 0.0 | 0.00 | 0.00 | 0.00 | 93 | 1009.0 |
| 20260509094221 | 20 | 72 | 0.0 | 0.0 | 0.00 | 0.00 | 0.00 | 93 | 1008.8 |
| 20260509093720 | 20 | 9 | 0.0 | 0.0 | 0.00 | 0.00 | 0.00 | 93 | 1008.7 |
| 20260509093216 | 20 | 351 | 0.0 | 1.6 | 0.00 | 0.00 | 0.00 | 92 | 1008.8 |
| 20260509092714 | 20 | 335 | 0.0 | 0.0 | 0.00 | 0.00 | 0.00 | 92 | 1009.1 |
| 20260509092213 | 20 | 1 | 0.0 | 0.0 | 0.00 | 0.00 | 0.00 | 92 | 1008.7 |
| 20260509091710 | 20 | 58 | 0.0 | 0.0 | 0.00 | 0.00 | 0.00 | 91 | 1008.8 |
| 20260509091206 | 20 | 74 | 0.0 | 1.6 | 0.00 | 0.00 | 0.00 | 91 | 1008.9 |
| 20260509090704 | 21 | 10 | 0.0 | 1.6 | 0.00 | 0.00 | 0.00 | 90 | 1008.8 |
| 20260509090201 | 21 | 173 | 3.2 | 8.0 | 0.00 | 0.00 | 0.00 | 89 | 1008.7 |
| 20260509085659 | 21 | 341 | 3.2 | 3.2 | 0.00 | 0.00 | 0.00 | 88 | 1008.6 |
| 20260509085155 | 21 | 0 | 1.6 | 3.2 | 0.00 | 0.00 | 0.00 | 87 | 1008.6 |
| 20260509084652 | 21 | 330 | 1.6 | 1.6 | 0.00 | 0.00 | 0.00 | 86 | 1008.6 |
| 20260509084149 | 21 | 4 | 0.0 | 0.0 | 0.00 | 0.00 | 0.00 | 85 | 1008.5 |
| 20260509083647 | 21 | 338 | 0.0 | 0.0 | 0.00 | 0.00 | 0.00 | 85 | 1008.5 |
| 20260509083143 | 21 | 335 | 0.0 | 0.0 | 0.00 | 0.00 | 0.00 | 85 | 1008.4 |
| 20260509082640 | 21 | 337 | 0.0 | 1.6 | 0.00 | 0.00 | 0.00 | 86 | 1008.4 |
| 20260509082137 | 21 | 345 | 4.8 | 4.8 | 0.00 | 0.00 | 0.00 | 86 | 1008.6 |
| 20260509081634 | 21 | 242 | 1.6 | 1.6 | 0.00 | 0.00 | 0.00 | 86 | 1007.4 |
| 20260509081131 | 21 | 131 | 4.8 | 4.8 | 0.00 | 0.00 | 0.00 | 87 | 1007.2 |
| 20260509080629 | 21 | 198 | 3.2 | 3.2 | 0.00 | 0.00 | 0.00 | 87 | 1007.4 |
| 20260509080127 | 21 | 162 | 3.2 | 4.8 | 0.00 | 0.00 | 0.00 | 87 | 1007.4 |
| 20260509075625 | 21 | 165 | 4.8 | 4.8 | 0.00 | 0.00 | 0.00 | 88 | 1007.3 |
| 20260509075122 | 21 | 192 | 12.9 | 16.1 | 0.00 | 0.00 | 0.00 | 88 | 1007.8 |
| 20260509074618 | 21 | 141 | 4.8 | 4.8 | 0.00 | 0.00 | 0.00 | 88 | 1008.2 |
| 20260509074115 | 21 | 199 | 8.0 | 11.3 | 0.00 | 0.00 | 0.00 | 89 | 1008.3 |
| 20260509073612 | 21 | 182 | 4.8 | 8.0 | 0.00 | 0.00 | 0.00 | 89 | 1008.6 |
| 20260509073108 | 21 | 125 | 4.8 | 4.8 | 0.00 | 0.00 | 0.00 | 89 | 1009.0 |
| 20260509072605 | 21 | 201 | 4.8 | 8.0 | 0.00 | 0.00 | 0.00 | 89 | 1009.1 |
| 20260509072102 | 21 | 152 | 6.4 | 8.0 | 0.00 | 0.00 | 0.00 | 89 | 1009.6 |
| 20260509071558 | 21 | 256 | 8.0 | 11.3 | 0.00 | 0.00 | 0.00 | 90 | 1009.6 |
| 20260509071056 | 21 | 137 | 4.8 | 8.0 | 0.00 | 0.00 | 0.00 | 90 | 1009.6 |
| 20260509070553 | 21 | 246 | 9.7 | 12.9 | 0.00 | 0.00 | 0.00 | 90 | 1009.6 |
| 20260509070049 | 21 | 171 | 8.0 | 11.3 | 0.00 | 0.00 | 0.00 | 91 | 1009.9 |
| 20260509065544 | 20 | 131 | 9.7 | 12.9 | 0.00 | 0.00 | 0.00 | 91 | 1009.9 |
| 20260509065041 | 20 | 162 | 4.8 | 4.8 | 0.00 | 0.00 | 0.00 | 91 | 1010.4 |
| 20260509064539 | 20 | 162 | 6.4 | 8.0 | 0.00 | 0.00 | 0.00 | 91 | 1010.1 |
| 20260509064037 | 20 | 202 | 6.4 | 9.7 | 0.00 | 0.00 | 0.00 | 90 | 1010.3 |
| 20260509063531 | 20 | 245 | 1.6 | 1.6 | 0.00 | 0.00 | 0.00 | 90 | 1010.5 |
| 20260509063029 | 20 | 279 | 3.2 | 8.0 | 0.00 | 0.00 | 0.00 | 90 | 1011.0 |
| 20260509062526 | 20 | 309 | 1.6 | 1.6 | 0.00 | 0.00 | 0.00 | 90 | 1010.9 |
| 20260509062024 | 20 | 197 | 3.2 | 4.8 | 0.00 | 0.00 | 0.00 | 90 | 1011.2 |
| 20260509061521 | 20 | 302 | 4.8 | 8.0 | 0.00 | 0.00 | 0.00 | 90 | 1011.3 |
| 20260509061018 | 20 | 202 | 1.6 | 3.2 | 0.00 | 0.00 | 0.00 | 90 | 1011.1 |
| 20260509060515 | 20 | 288 | 4.8 | 4.8 | 0.00 | 0.00 | 0.00 | 90 | 1011.3 |
| 20260509060011 | 20 | 226 | 0.0 | 1.6 | 0.00 | 0.00 | 0.00 | 90 | 1011.4 |
| 20260509055506 | 20 | 239 | 0.0 | 1.6 | 0.00 | 0.00 | 0.00 | 90 | 1011.4 |
| 20260509055003 | 20 | 194 | 1.6 | 1.6 | 0.00 | 0.00 | 0.00 | 90 | 1011.2 |
| 20260509054459 | 20 | 184 | 0.0 | 1.6 | 0.00 | 0.00 | 0.00 | 90 | 1011.0 |
| 20260509053958 | 20 | 223 | 1.6 | 1.6 | 0.00 | 0.00 | 0.00 | 89 | 1011.0 |
| 20260509053455 | 20 | 217 | 1.6 | 1.6 | 0.00 | 0.00 | 0.00 | 89 | 1011.0 |
| 20260509052952 | 20 | 313 | 0.0 | 1.6 | 0.00 | 0.00 | 0.00 | 89 | 1011.2 |
| 20260509052450 | 20 | 10 | 0.0 | 1.6 | 0.00 | 0.00 | 0.00 | 89 | 1011.1 |
| 20260509051948 | 20 | 46 | 1.6 | 1.6 | 0.00 | 0.00 | 0.00 | 89 | 1011.2 |
| 20260509051445 | 20 | 350 | 0.0 | 0.0 | 0.00 | 0.00 | 0.00 | 88 | 1011.4 |
| 20260509050942 | 20 | 164 | 3.2 | 3.2 | 0.00 | 0.00 | 0.00 | 88 | 1011.5 |
| 20260509050439 | 21 | 291 | 0.0 | 0.0 | 0.00 | 0.00 | 0.00 | 86 | 1012.1 |
| 20260509045935 | 21 | 337 | 0.0 | 0.0 | 0.00 | 0.30 | 0.30 | 86 | 1012.1 |
| 20260509045433 | 21 | 197 | 3.2 | 3.2 | 0.00 | 0.30 | 0.30 | 86 | 1012.4 |
| 20260509044929 | 21 | 1 | 1.6 | 1.6 | 0.00 | 0.30 | 0.30 | 86 | 1012.8 |
| 20260509044427 | 21 | 335 | 0.0 | 0.0 | 0.00 | 0.30 | 0.30 | 85 | 1012.7 |
| 20260509043924 | 21 | 341 | 0.0 | 0.0 | 0.00 | 0.30 | 0.30 | 85 | 1012.7 |
| 20260509043420 | 21 | 346 | 1.6 | 3.2 | 0.00 | 0.30 | 0.30 | 85 | 1012.7 |
| 20260509042916 | 21 | 329 | 1.6 | 3.2 | 0.00 | 0.30 | 0.30 | 85 | 1011.5 |
| 20260509042413 | 21 | 210 | 3.2 | 3.2 | 0.00 | 0.30 | 0.30 | 85 | 1011.0 |
| 20260509041909 | 21 | 216 | 1.6 | 1.6 | 0.00 | 0.30 | 0.30 | 85 | 1010.9 |
| 20260509041406 | 21 | 208 | 3.2 | 3.2 | 0.00 | 0.30 | 0.30 | 85 | 1011.2 |
| 20260509040904 | 22 | 132 | 1.6 | 1.6 | 0.00 | 0.30 | 0.30 | 84 | 1011.3 |
| 20260509040402 | 21 | 5 | 0.0 | 0.0 | 0.00 | 0.30 | 0.30 | 84 | 1011.2 |
| 20260509035858 | 21 | 17 | 1.6 | 1.6 | 0.00 | 0.30 | 0.30 | 84 | 1011.2 |
| 20260509035355 | 21 | 130 | 1.6 | 1.6 | 0.00 | 0.30 | 0.30 | 84 | 1010.9 |
| 20260509034852 | 21 | 142 | 3.2 | 4.8 | 0.00 | 0.30 | 0.30 | 84 | 1010.2 |
| 20260509034349 | 21 | 171 | 3.2 | 4.8 | 0.00 | 0.30 | 0.30 | 85 | 1010.2 |
| 20260509033846 | 21 | 161 | 1.6 | 4.8 | 0.00 | 0.30 | 0.30 | 85 | 1010.1 |
| 20260509033344 | 21 | 137 | 3.2 | 4.8 | 0.00 | 0.30 | 0.30 | 85 | 1010.2 |
| 20260509032840 | 21 | 123 | 0.0 | 0.0 | 0.00 | 0.30 | 0.30 | 85 | 1010.3 |
| 20260509032337 | 21 | 148 | 4.8 | 4.8 | 0.00 | 0.30 | 0.30 | 84 | 1009.9 |
| 20260509031836 | 21 | 157 | 4.8 | 4.8 | 0.00 | 0.30 | 0.30 | 84 | 1010.0 |
| 20260509031332 | 21 | 134 | 4.8 | 8.0 | 0.00 | 0.30 | 0.30 | 84 | 1010.4 |
| 20260509030830 | 21 | 131 | 6.4 | 9.7 | 0.00 | 0.30 | 0.30 | 84 | 1010.5 |
| 20260509030328 | 22 | 107 | 1.6 | 1.6 | 0.00 | 0.30 | 0.30 | 83 | 1011.2 |
| 20260509025824 | 22 | 339 | 0.0 | 0.0 | 0.00 | 0.30 | 0.30 | 83 | 1011.7 |
| 20260509025320 | 22 | 352 | 0.0 | 0.0 | 0.00 | 0.30 | 0.30 | 83 | 1011.5 |
| 20260509024815 | 22 | 330 | 0.0 | 1.6 | 0.00 | 0.30 | 0.30 | 83 | 1011.4 |
| 20260509024312 | 22 | 349 | 0.0 | 0.0 | 0.00 | 0.30 | 0.30 | 83 | 1010.7 |
| 20260509023809 | 22 | 337 | 1.6 | 1.6 | 0.00 | 0.30 | 0.30 | 83 | 1010.6 |
| 20260509023306 | 22 | 103 | 1.6 | 3.2 | 0.00 | 0.30 | 0.30 | 83 | 1010.3 |
| 20260509022802 | 22 | 43 | 0.0 | 0.0 | 0.00 | 0.30 | 0.30 | 83 | 1010.4 |
| 20260509022300 | 22 | 129 | 3.2 | 3.2 | 0.00 | 0.30 | 0.30 | 83 | 1009.8 |
| 20260509021757 | 22 | 145 | 4.8 | 4.8 | 0.00 | 0.30 | 0.30 | 83 | 1009.5 |
| 20260509021254 | 22 | 146 | 4.8 | 4.8 | 0.00 | 0.30 | 0.30 | 82 | 1009.2 |
| 20260509020752 | 22 | 162 | 4.8 | 4.8 | 0.00 | 0.30 | 0.30 | 82 | 1009.0 |
| 20260509020249 | 22 | 140 | 8.0 | 11.3 | 0.00 | 0.30 | 0.30 | 82 | 1008.9 |
| 20260509015747 | 22 | 166 | 4.8 | 4.8 | 0.00 | 0.30 | 0.30 | 82 | 1009.0 |
| 20260509015245 | 22 | 163 | 4.8 | 8.0 | 0.00 | 0.30 | 0.30 | 82 | 1008.9 |
| 20260509014741 | 22 | 141 | 6.4 | 9.7 | 0.00 | 0.30 | 0.30 | 81 | 1009.1 |
| 20260509014238 | 22 | 166 | 3.2 | 3.2 | 0.00 | 0.30 | 0.30 | 81 | 1008.8 |
| 20260509013735 | 22 | 174 | 8.0 | 9.7 | 0.00 | 0.30 | 0.30 | 80 | 1008.9 |
| 20260509013230 | 22 | 164 | 6.4 | 8.0 | 0.00 | 0.30 | 0.30 | 80 | 1008.7 |
| 20260509012727 | 22 | 190 | 4.8 | 8.0 | 0.00 | 0.30 | 0.30 | 79 | 1008.9 |
| 20260509012224 | 22 | 208 | 6.4 | 9.7 | 0.00 | 0.30 | 0.30 | 79 | 1008.9 |
| 20260509011721 | 22 | 168 | 6.4 | 8.0 | 0.00 | 0.30 | 0.30 | 78 | 1008.9 |
| 20260509011219 | 22 | 175 | 6.4 | 8.0 | 0.00 | 0.30 | 0.30 | 78 | 1009.0 |
| 20260509010717 | 22 | 154 | 4.8 | 4.8 | 0.00 | 0.30 | 0.30 | 77 | 1009.4 |
| 20260509010212 | 23 | 114 | 3.2 | 3.2 | 0.00 | 0.30 | 0.30 | 77 | 1009.4 |
| 20260509005710 | 23 | 182 | 3.2 | 3.2 | 0.00 | 0.30 | 0.30 | 77 | 1009.3 |
| 20260509005207 | 23 | 195 | 3.2 | 3.2 | 0.00 | 0.30 | 0.30 | 77 | 1009.4 |
| 20260509004702 | 23 | 150 | 4.8 | 4.8 | 0.00 | 0.30 | 0.30 | 77 | 1009.4 |
| 20260509004200 | 23 | 171 | 4.8 | 8.0 | 0.00 | 0.30 | 0.30 | 76 | 1009.2 |
| 20260509003658 | 23 | 129 | 4.8 | 8.0 | 0.00 | 0.30 | 0.30 | 76 | 1009.2 |
| 20260509003155 | 23 | 131 | 6.4 | 8.0 | 0.00 | 0.30 | 0.30 | 76 | 1009.0 |
| 20260509002652 | 23 | 172 | 4.8 | 4.8 | 0.00 | 0.30 | 0.30 | 76 | 1008.8 |
| 20260509002150 | 23 | 175 | 4.8 | 4.8 | 0.00 | 0.30 | 0.30 | 76 | 1008.9 |
| 20260509001647 | 23 | 201 | 8.0 | 9.7 | 0.00 | 0.30 | 0.30 | 75 | 1008.8 |
| 20260509001142 | 23 | 145 | 3.2 | 4.8 | 0.00 | 0.30 | 0.30 | 75 | 1008.9 |
| 20260509000641 | 23 | 111 | 9.7 | 12.9 | 0.00 | 0.30 | 0.30 | 75 | 1008.6 |
| 20260509000138 | 23 | 143 | 8.0 | 11.3 | 0.00 | 0.30 | 0.30 | 74 | 1008.7 |
| 20260508235635 | 24 | 157 | 6.4 | 8.0 | 0.00 | 0.30 | 0.30 | 73 | 1008.5 |
| 20260508235131 | 23 | 140 | 6.4 | 9.7 | 0.00 | 0.30 | 0.30 | 74 | 1008.7 |
| 20260508234629 | 23 | 141 | 6.4 | 9.7 | 0.00 | 0.30 | 0.30 | 73 | 1008.9 |
| 20260508234125 | 24 | 181 | 9.7 | 12.9 | 0.00 | 0.30 | 0.30 | 72 | 1008.9 |
| 20260508233625 | 24 | 155 | 4.8 | 4.8 | 0.00 | 0.30 | 0.30 | 72 | 1008.9 |
| 20260508233122 | 24 | 190 | 9.7 | 12.9 | 0.00 | 0.30 | 0.30 | 71 | 1009.1 |
| 20260508232619 | 25 | 170 | 11.3 | 11.3 | 0.00 | 0.30 | 0.30 | 71 | 1009.1 |
| 20260508232115 | 25 | 207 | 8.0 | 9.7 | 0.00 | 0.30 | 0.30 | 71 | 1009.0 |
| 20260508231613 | 25 | 131 | 6.4 | 8.0 | 0.00 | 0.30 | 0.30 | 71 | 1009.2 |
| 20260508231110 | 25 | 146 | 6.4 | 8.0 | 0.00 | 0.30 | 0.30 | 70 | 1009.2 |
| 20260508230606 | 25 | 169 | 6.4 | 11.3 | 0.00 | 0.30 | 0.30 | 70 | 1008.9 |
| 20260508225601 | 25 | 203 | 8.0 | 11.3 | 0.00 | 0.30 | 0.30 | 70 | 1009.1 |
| 20260508225057 | 25 | 181 | 8.0 | 11.3 | 0.00 | 0.30 | 0.30 | 69 | 1009.1 |
| 20260508224555 | 25 | 296 | 6.4 | 8.0 | 0.00 | 0.30 | 0.30 | 69 | 1009.2 |
| 20260508224052 | 25 | 92 | 4.8 | 8.0 | 0.00 | 0.30 | 0.30 | 68 | 1008.9 |
| 20260508223550 | 25 | 139 | 8.0 | 11.3 | 0.00 | 0.30 | 0.30 | 69 | 1009.1 |
| 20260508223047 | 25 | 174 | 9.7 | 12.9 | 0.00 | 0.30 | 0.30 | 68 | 1009.2 |
| 20260508222544 | 25 | 200 | 4.8 | 8.0 | 0.00 | 0.30 | 0.30 | 68 | 1009.0 |
| 20260508222041 | 25 | 207 | 6.4 | 8.0 | 0.00 | 0.30 | 0.30 | 69 | 1009.2 |
| 20260508221537 | 25 | 192 | 6.4 | 9.7 | 0.00 | 0.30 | 0.30 | 69 | 1009.0 |
| 20260508221033 | 25 | 157 | 6.4 | 8.0 | 0.00 | 0.30 | 0.30 | 69 | 1009.3 |
| 20260508220530 | 25 | 141 | 4.8 | 8.0 | 0.00 | 0.30 | 0.30 | 68 | 1009.1 |
| 20260508220026 | 25 | 118 | 3.2 | 4.8 | 0.00 | 0.30 | 0.30 | 68 | 1009.2 |
| 20260508215523 | 25 | 157 | 6.4 | 8.0 | 0.00 | 0.30 | 0.30 | 68 | 1009.2 |
| 20260508215020 | 25 | 180 | 3.2 | 4.8 | 0.00 | 0.30 | 0.30 | 68 | 1009.3 |
| 20260508214518 | 25 | 202 | 4.8 | 8.0 | 0.00 | 0.30 | 0.30 | 67 | 1009.5 |
| 20260508214014 | 26 | 178 | 8.0 | 11.3 | 0.00 | 0.30 | 0.30 | 68 | 1009.4 |
| 20260508213511 | 25 | 175 | 9.7 | 11.3 | 0.00 | 0.30 | 0.30 | 67 | 1009.4 |
| 20260508213007 | 26 | 175 | 6.4 | 9.7 | 0.00 | 0.30 | 0.30 | 66 | 1009.4 |
| 20260508212503 | 26 | 136 | 6.4 | 9.7 | 0.00 | 0.30 | 0.30 | 67 | 1009.4 |
| 20260508212000 | 25 | 119 | 6.4 | 8.0 | 0.00 | 0.30 | 0.30 | 69 | 1009.4 |
| 20260508211455 | 25 | 141 | 4.8 | 8.0 | 0.00 | 0.30 | 0.30 | 70 | 1009.5 |
| 20260508210952 | 25 | 161 | 9.7 | 12.9 | 0.00 | 0.30 | 0.30 | 67 | 1009.5 |
| 20260508210449 | 25 | 118 | 4.8 | 8.0 | 0.00 | 0.30 | 0.30 | 68 | 1009.6 |
| 20260508205945 | 25 | 183 | 3.2 | 3.2 | 0.00 | 0.30 | 0.30 | 69 | 1009.5 |
| 20260508205442 | 25 | 179 | 8.0 | 11.3 | 0.00 | 0.30 | 0.30 | 68 | 1009.8 |
| 20260508204938 | 25 | 94 | 6.4 | 9.7 | 0.00 | 0.30 | 0.30 | 67 | 1009.8 |
| 20260508204436 | 23 | 168 | 9.7 | 11.3 | 0.00 | 0.30 | 0.30 | 69 | 1010.3 |
| 20260508203931 | 24 | 119 | 8.0 | 9.7 | 0.00 | 0.30 | 0.30 | 70 | 1010.4 |
| 20260508203428 | 25 | 170 | 11.3 | 14.5 | 0.00 | 0.30 | 0.30 | 69 | 1010.4 |
| 20260508202923 | 25 | 140 | 6.4 | 8.0 | 0.00 | 0.30 | 0.30 | 68 | 1010.6 |
| 20260508202421 | 25 | 133 | 8.0 | 9.7 | 0.00 | 0.30 | 0.30 | 69 | 1010.5 |
| 20260508201918 | 25 | 180 | 6.4 | 9.7 | 0.00 | 0.30 | 0.30 | 68 | 1010.7 |
| 20260508201415 | 25 | 193 | 4.8 | 9.7 | 0.00 | 0.30 | 0.30 | 70 | 1011.2 |
| 20260508200911 | 25 | 198 | 8.0 | 12.9 | 0.00 | 0.30 | 0.30 | 67 | 1011.1 |
| 20260508200408 | 25 | 97 | 3.2 | 8.0 | 0.00 | 0.30 | 0.30 | 68 | 1010.7 |
| 20260508195903 | 25 | 192 | 4.8 | 8.0 | 0.00 | 0.30 | 0.30 | 69 | 1011.2 |
| 20260508195401 | 25 | 150 | 4.8 | 4.8 | 0.00 | 0.30 | 0.30 | 68 | 1011.3 |
| 20260508194857 | 25 | 147 | 4.8 | 4.8 | 0.00 | 0.30 | 0.30 | 68 | 1011.5 |
| 20260508194354 | 25 | 131 | 8.0 | 11.3 | 0.00 | 0.30 | 0.30 | 68 | 1011.2 |
| 20260508193851 | 25 | 182 | 8.0 | 9.7 | 0.00 | 0.30 | 0.30 | 68 | 1011.3 |
| 20260508193348 | 25 | 159 | 8.0 | 11.3 | 0.00 | 0.30 | 0.30 | 69 | 1011.4 |
| 20260508192844 | 25 | 145 | 3.2 | 3.2 | 0.00 | 0.30 | 0.30 | 70 | 1011.4 |
| 20260508192341 | 25 | 202 | 6.4 | 9.7 | 0.00 | 0.30 | 0.30 | 68 | 1011.5 |
| 20260508191838 | 24 | 152 | 4.8 | 9.7 | 0.00 | 0.30 | 0.30 | 70 | 1011.6 |
| 20260508191336 | 25 | 160 | 3.2 | 3.2 | 0.00 | 0.30 | 0.30 | 70 | 1011.5 |
| 20260508190833 | 25 | 154 | 6.4 | 9.7 | 0.00 | 0.30 | 0.30 | 67 | 1011.7 |
| 20260508190329 | 25 | 161 | 1.6 | 1.6 | 0.00 | 0.30 | 0.30 | 70 | 1011.4 |
| 20260508185825 | 24 | 169 | 6.4 | 9.7 | 0.00 | 0.30 | 0.30 | 68 | 1011.7 |
| 20260508185323 | 24 | 181 | 4.8 | 4.8 | 0.00 | 0.30 | 0.30 | 70 | 1011.9 |
| 20260508184820 | 25 | 222 | 1.6 | 3.2 | 0.00 | 0.30 | 0.30 | 68 | 1011.7 |
| 20260508184317 | 24 | 168 | 3.2 | 8.0 | 0.00 | 0.30 | 0.30 | 70 | 1011.8 |
| 20260508183814 | 25 | 178 | 3.2 | 3.2 | 0.00 | 0.30 | 0.30 | 67 | 1012.1 |
| 20260508183311 | 25 | 166 | 6.4 | 9.7 | 0.00 | 0.30 | 0.30 | 67 | 1011.7 |
| 20260508182806 | 24 | 122 | 4.8 | 8.0 | 0.00 | 0.30 | 0.30 | 70 | 1012.1 |
| 20260508182306 | 25 | 197 | 4.8 | 8.0 | 0.00 | 0.30 | 0.30 | 69 | 1012.2 |
| 20260508181759 | 24 | 125 | 4.8 | 4.8 | 0.00 | 0.30 | 0.30 | 69 | 1012.1 |
| 20260508181256 | 23 | 147 | 3.2 | 8.0 | 0.00 | 0.30 | 0.30 | 71 | 1012.1 |
| 20260508180753 | 24 | 170 | 3.2 | 4.8 | 0.00 | 0.30 | 0.30 | 70 | 1012.6 |
| 20260508180250 | 23 | 233 | 4.8 | 8.0 | 0.00 | 0.30 | 0.30 | 70 | 1012.5 |
| 20260508175746 | 23 | 181 | 8.0 | 11.3 | 0.00 | 0.30 | 0.30 | 67 | 1012.6 |
| 20260508175243 | 23 | 101 | 3.2 | 3.2 | 0.00 | 0.30 | 0.30 | 69 | 1012.8 |
| 20260508174741 | 23 | 186 | 4.8 | 8.0 | 0.00 | 0.30 | 0.30 | 69 | 1012.9 |
| 20260508174238 | 23 | 171 | 8.0 | 9.7 | 0.00 | 0.30 | 0.30 | 68 | 1013.0 |
| 20260508173734 | 23 | 274 | 3.2 | 4.8 | 0.00 | 0.30 | 0.30 | 70 | 1013.1 |
| 20260508173230 | 23 | 149 | 4.8 | 4.8 | 0.00 | 0.30 | 0.30 | 70 | 1012.7 |
| 20260508172727 | 22 | 194 | 4.8 | 8.0 | 0.00 | 0.30 | 0.30 | 73 | 1012.9 |
| 20260508172224 | 22 | 237 | 3.2 | 4.8 | 0.00 | 0.30 | 0.30 | 72 | 1013.3 |
| 20260508171721 | 22 | 144 | 4.8 | 4.8 | 0.00 | 0.30 | 0.30 | 73 | 1013.3 |
| 20260508171217 | 22 | 205 | 4.8 | 4.8 | 0.00 | 0.30 | 0.30 | 72 | 1013.3 |
| 20260508170714 | 22 | 132 | 4.8 | 4.8 | 0.00 | 0.30 | 0.30 | 72 | 1013.4 |
| 20260508170212 | 22 | 115 | 6.4 | 8.0 | 0.00 | 0.30 | 0.30 | 73 | 1013.4 |
| 20260508165709 | 21 | 143 | 8.0 | 9.7 | 0.00 | 0.30 | 0.30 | 73 | 1013.5 |
| 20260508165206 | 21 | 177 | 1.6 | 3.2 | 0.00 | 0.30 | 0.30 | 74 | 1013.7 |
| 20260508164702 | 21 | 123 | 6.4 | 8.0 | 0.00 | 0.30 | 0.30 | 73 | 1013.7 |
| 20260508164159 | 21 | 91 | 8.0 | 11.3 | 0.00 | 0.30 | 0.30 | 71 | 1014.0 |
| 20260508163657 | 21 | 213 | 4.8 | 9.7 | 0.00 | 0.30 | 0.30 | 74 | 1014.0 |
| 20260508163154 | 21 | 200 | 6.4 | 9.7 | 0.00 | 0.30 | 0.30 | 73 | 1014.2 |
| 20260508162649 | 20 | 179 | 6.4 | 8.0 | 0.00 | 0.30 | 0.30 | 74 | 1014.0 |